Torna al catalogo

STARLINK-37705

AttivoComunicazioniVLEO
NORAD 100273·PAYLOAD·🇺🇸 United States

Lanciato Aug 11, 2026 da Cape Canaveral Space Force Station

Loading…

Prossimi Passaggi (prossime 24 ore)

TLE

In scadenzaSource: Space-Track

Epoca: Sep 11, 2026, 14:19 UTC

1 A0273U 26183B   26254.59653454 -.00916529  00000-0 -69941-2 0  9997
2 A0273  53.1574 301.3956 0000560 106.2439 253.8643 15.74112189  4905

Traccia STARLINK-37705 in tempo reale con AllMySat

Download on the App Store